DW5522 Weather Reports


time (UTC)temp
C
wind
direction
speed
KPH
gust
KPH
rain 1hr
cm
rain 24hr
cm
rain mn
cm
humidity
%
barometer
mb
20260507013702 7 307 3.2 8.0 0.00 0.00 0.00 93 1011.9
20260507013602 7 309 6.4 8.0 0.00 0.00 0.00 93 1011.9
20260507013504 7 295 4.8 8.0 0.00 0.00 0.00 93 1011.8
20260507013402 7 316 3.2 8.0 0.00 0.00 0.00 93 1011.9
20260507013302 7 315 4.8 8.0 0.00 0.00 0.00 93 1011.9
20260507013211 7 315 3.2 8.0 0.00 0.00 0.00 92 11.5
20260507013202 7 311 4.8 8.0 0.00 0.00 0.00 93 1011.8
20260507013103 7 313 4.8 8.0 0.00 0.00 0.00 93 1011.8
20260507012603 7 308 3.2 6.4 0.00 0.00 0.00 93 1011.8
20260507012503 7 304 4.8 6.4 0.00 0.00 0.00 93 1011.8
20260507012211 7 316 3.2 8.0 0.00 0.00 0.00 92 11.5
20260507012202 7 325 4.8 8.0 0.00 0.00 0.00 93 1011.8
20260507012009 7 342 4.8 8.0 0.00 0.00 0.00 93 1011.8
20260507011903 7 316 4.8 8.0 0.00 0.00 0.00 93 1011.8
20260507011703 7 323 3.2 4.8 0.00 0.00 0.00 93 1011.8
20260507011603 7 323 3.2 6.4 0.00 0.00 0.00 93 1011.7
20260507011505 7 323 1.6 6.4 0.00 0.00 0.00 93 1011.8
20260507011402 7 323 0.0 6.4 0.00 0.00 0.00 93 1011.7
20260507011211 7 323 3.2 8.0 0.00 0.00 0.00 93 1011.7
20260507011203 7 323 3.2 8.0 0.00 0.00 0.00 93 1011.7
20260507011103 7 323 3.2 8.0 0.00 0.00 0.00 93 1011.6
20260507010703 7 316 4.8 8.0 0.00 0.00 0.00 93 1011.7
20260507010602 7 355 3.2 8.0 0.00 0.00 0.00 93 1011.7
20260507010504 7 298 4.8 8.0 0.00 0.00 0.00 93 1011.6
20260507010403 7 297 1.6 8.0 0.00 0.00 0.00 93 1011.7
20260507010303 7 325 3.2 4.8 0.00 0.00 0.00 93 1011.7
20260507010211 7 325 1.6 6.4 0.00 0.00 0.00 92 11.4
20260507010204 7 325 3.2 6.4 0.00 0.00 0.00 93 1011.6
20260507005802 7 325 3.2 9.7 0.00 0.00 0.00 93 1011.7
20260507005703 7 325 4.8 9.7 0.00 0.00 0.00 93 1011.7
20260507005504 7 300 3.2 6.4 0.00 0.00 0.00 93 1011.7
20260507005211 7 300 4.8 8.0 0.00 0.00 0.00 92 11.4
20260507005103 7 300 4.8 6.4 0.00 0.00 0.00 93 1011.7
20260507005003 7 300 4.8 8.0 0.00 0.00 0.00 93 1011.7
20260507004802 7 300 3.2 8.0 0.00 0.00 0.00 94 1011.7
20260507004703 7 300 3.2 8.0 0.00 0.00 0.00 93 1011.6
20260507004602 7 300 4.8 8.0 0.00 0.00 0.00 94 1011.7
20260507004504 7 296 6.4 6.4 0.00 0.00 0.00 94 1011.6
20260507004211 7 314 3.2 4.8 0.00 0.00 0.00 92 11.4
20260507004103 7 311 3.2 4.8 0.00 0.00 0.00 93 1011.6
20260507003902 7 308 0.0 6.4 0.00 0.00 0.00 93 1011.6
20260507003702 7 309 4.8 6.4 0.00 0.00 0.00 93 1011.6
20260507003603 7 307 3.2 6.4 0.00 0.00 0.00 93 1011.6
20260507003504 7 306 4.8 6.4 0.00 0.00 0.00 93 1011.6
20260507003402 7 307 4.8 6.4 0.00 0.00 0.00 93 1011.6
20260507003302 7 306 3.2 8.0 0.00 0.00 0.00 93 1011.6
20260507003213 7 305 4.8 8.0 0.00 0.00 0.00 92 11.4
20260507003211 7 306 3.2 8.0 0.00 0.00 0.00 93 1011.6
20260507003102 7 303 3.2 8.0 0.00 0.00 0.00 93 1011.6
20260507003004 7 302 4.8 8.0 0.00 0.00 0.00 93 1011.6
20260507002803 7 311 6.4 8.0 0.00 0.00 0.00 93 1011.5
20260507002702 7 312 4.8 8.0 0.00 0.00 0.00 93 1011.5
20260507002603 7 308 3.2 6.4 0.00 0.00 0.00 93 1011.5
20260507002504 7 304 3.2 6.4 0.00 0.00 0.00 93 1011.5
20260507002403 7 303 4.8 6.4 0.00 0.00 0.00 93 1011.5
20260507002213 7 304 4.8 8.0 0.00 0.00 0.00 92 11.3
20260507002210 7 304 4.8 8.0 0.00 0.00 0.00 93 1011.5
20260507002203 7 301 3.2 8.0 0.00 0.00 0.00 93 1011.5
20260507002103 7 304 3.2 8.0 0.00 0.00 0.00 93 1011.5
20260507001902 7 307 3.2 8.0 0.00 0.00 0.00 93 1011.5
20260507001703 7 310 3.2 6.4 0.00 0.00 0.00 93 1011.5
20260507001603 7 310 1.6 6.4 0.00 0.00 0.00 93 1011.5
20260507001504 7 314 3.2 6.4 0.00 0.00 0.00 93 1011.4
20260507001302 7 314 3.2 6.4 0.00 0.00 0.00 93 1011.5
20260507001213 7 314 4.8 6.4 0.00 0.00 0.00 92 11.2
20260507001210 7 314 4.8 6.4 0.00 0.00 0.00 93 1011.5
20260507001203 7 306 3.2 6.4 0.00 0.00 0.00 93 1011.4
20260507001005 7 306 3.2 6.4 0.00 0.00 0.00 93 1011.5
20260507000903 7 307 3.2 4.8 0.00 0.00 0.00 93 1011.5
20260507000802 7 305 3.2 6.4 0.00 0.00 0.00 93 1011.5
20260507000703 7 306 3.2 6.4 0.00 0.00 0.00 93 1011.4
20260507000504 7 306 4.8 6.4 0.00 0.00 0.00 93 1011.5
20260507000303 7 306 3.2 6.4 0.00 0.00 0.00 93 1011.5
20260507000213 7 306 3.2 6.4 0.00 0.00 0.00 92 11.2
20260507000205 7 305 3.2 6.4 0.00 0.00 0.00 93 1011.5
20260507000005 7 306 3.2 6.4 0.00 0.00 0.00 93 1011.5
20260506235903 7 305 4.8 6.4 0.00 0.00 0.00 93 1011.5
20260506235703 7 307 3.2 6.4 0.00 0.00 0.00 93 1011.5
20260506235306 7 317 3.2 6.4 0.00 0.00 0.00 93 1011.5
20260506235213 7 317 1.6 6.4 0.00 0.00 0.00 92 11.2
20260506235210 7 317 1.6 6.4 0.00 0.00 0.00 93 1011.5
20260506235103 7 317 4.8 6.4 0.00 0.00 0.00 93 1011.5
20260506235004 7 319 3.2 6.4 0.00 0.00 0.00 93 1011.4
20260506234902 7 319 3.2 6.4 0.00 0.00 0.00 93 1011.5
20260506234802 7 319 3.2 6.4 0.00 0.00 0.00 93 1011.4
20260506234703 7 319 3.2 6.4 0.00 0.00 0.00 93 1011.5
20260506234603 7 319 3.2 6.4 0.00 0.00 0.00 93 1011.4
20260506234213 7 336 3.2 4.8 0.00 0.00 0.00 92 11.2
20260506234210 7 336 3.2 4.8 0.00 0.00 0.00 93 1011.4
20260506234202 7 336 1.6 4.8 0.00 0.00 0.00 93 1011.5
20260506233902 7 336 1.6 6.4 0.00 0.00 0.00 93 1011.5
20260506233702 7 336 3.2 6.4 0.00 0.00 0.00 93 1011.5
20260506233603 7 337 1.6 6.4 0.00 0.00 0.00 93 1011.5
20260506233402 7 338 3.2 6.4 0.00 0.00 0.00 93 1011.5
20260506233302 7 338 1.6 6.4 0.00 0.00 0.00 93 1011.4
20260506233213 7 338 3.2 6.4 0.00 0.00 0.00 92 11.2
20260506233211 7 338 3.2 6.4 0.00 0.00 0.00 93 1011.5
20260506233202 7 355 1.6 3.2 0.00 0.00 0.00 93 1011.4
20260506232803 7 355 1.6 6.4 0.00 0.00 0.00 93 1011.4
20260506232503 7 355 3.2 4.8 0.00 0.00 0.00 93 1011.4
20260506232403 7 351 1.6 4.8 0.00 0.00 0.00 93 1011.4
20260506232306 7 351 3.2 4.8 0.00 0.00 0.00 93 1011.4
20260506232213 7 351 1.6 6.4 0.00 0.00 0.00 92 11.2
20260506232211 7 351 1.6 6.4 0.00 0.00 0.00 93 1011.4
20260506232003 7 346 3.2 6.4 0.00 0.00 0.00 93 1011.4
20260506231902 7 27 3.2 6.4 0.00 0.00 0.00 93 1011.4
20260506231802 7 27 1.6 6.4 0.00 0.00 0.00 93 1011.3
20260506231213 7 31 3.2 4.8 0.00 0.00 0.00 92 11.1
20260506231211 7 31 3.2 4.8 0.00 0.00 0.00 93 1011.4
20260506231003 7 31 1.6 4.8 0.00 0.00 0.00 93 1011.3
20260506230703 7 31 3.2 4.8 0.00 0.00 0.00 93 1011.3
20260506230504 7 31 1.6 4.8 0.00 0.00 0.00 93 1011.3
20260506230403 7 34 3.2 4.8 0.00 0.00 0.00 93 1011.3
20260506230303 7 34 1.6 6.4 0.00 0.00 0.00 93 1011.3
20260506230103 7 30 1.6 6.4 0.00 0.00 0.00 93 1011.3
20260506230004 7 34 3.2 6.4 0.00 0.00 0.00 93 1011.3
20260506225803 7 27 3.2 6.4 0.00 0.00 0.00 93 1011.2
20260506225702 7 26 3.2 6.4 0.00 0.00 0.00 93 1011.3
20260506225603 7 26 1.6 6.4 0.00 0.00 0.00 93 1011.2
20260506225503 7 34 3.2 4.8 0.00 0.00 0.00 93 1011.2
20260506225403 7 34 1.6 8.0 0.00 0.00 0.00 93 1011.2
20260506225305 7 34 3.2 8.0 0.00 0.00 0.00 93 1011.2
20260506225213 7 34 1.6 8.0 0.00 0.00 0.00 92 11.0
20260506225210 7 34 1.6 8.0 0.00 0.00 0.00 93 1011.2
20260506225203 7 30 3.2 8.0 0.00 0.00 0.00 94 1011.2
20260506225103 7 30 4.8 8.0 0.00 0.00 0.00 94 1011.2
20260506225003 7 30 3.2 8.0 0.00 0.00 0.00 94 1011.1
20260506224902 7 34 3.2 6.4 0.00 0.00 0.00 94 1011.2
20260506224505 7 34 3.2 9.7 0.00 0.00 0.00 94 1011.2
20260506224302 7 34 6.4 9.7 0.00 0.00 0.00 94 1011.1
20260506224213 7 34 4.8 9.7 0.00 0.00 0.00 93 10.9
20260506224211 7 34 4.8 9.7 0.00 0.00 0.00 94 1011.1
20260506224203 7 24 3.2 9.7 0.00 0.00 0.00 94 1011.2
20260506224103 7 27 3.2 8.0 0.00 0.00 0.00 94 1011.1
20260506223902 7 23 3.2 9.7 0.00 0.00 0.00 94 1011.1
20260506223702 7 14 4.8 12.9 0.00 0.00 0.00 94 1011.1
20260506223603 7 355 0.0 12.9 0.00 0.00 0.00 94 1011.1
20260506223503 7 26 4.8 12.9 0.00 0.00 0.00 94 1011.1
20260506223402 7 26 3.2 12.9 0.00 0.00 0.00 94 1011.1
20260506223213 7 31 3.2 14.5 0.00 0.00 0.00 93 10.9
20260506223210 7 31 3.2 14.5 0.00 0.00 0.00 94 1011.1
20260506223202 7 31 4.8 12.9 0.00 0.00 0.00 94 1011.1
20260506223103 7 24 4.8 12.9 0.00 0.00 0.00 94 1011.1
20260506223005 7 5 4.8 8.0 0.00 0.00 0.00 94 1011.0
20260506222903 7 360 3.2 8.0 0.00 0.00 0.00 94 1011.1
20260506222802 7 355 3.2 8.0 0.00 0.00 0.00 94 1011.0
20260506222703 7 355 4.8 8.0 0.00 0.00 0.00 94 1011.0
20260506222603 7 51 6.4 12.9 0.00 0.00 0.00 94 1011.0
20260506222503 7 37 3.2 12.9 0.00 0.00 0.00 94 1011.0
20260506222403 7 24 4.8 12.9 0.00 0.00 0.00 94 1011.0
20260506222305 7 22 8.0 12.9 0.00 0.00 0.00 94 1010.9
20260506222203 7 34 4.8 12.9 0.00 0.00 0.00 94 1011.0
20260506222103 7 36 4.8 8.0 0.00 0.00 0.00 94 1010.9
20260506222004 7 44 4.8 8.0 0.00 0.00 0.00 94 1011.0
20260506221903 7 28 4.8 6.4 0.00 0.00 0.00 94 1010.9
20260506221803 7 36 1.6 6.4 0.00 0.00 0.00 94 1011.0
20260506221703 7 27 3.2 6.4 0.00 0.00 0.00 94 1011.0
20260506221603 7 27 4.8 12.9 0.00 0.00 0.00 94 1010.9
20260506221505 7 28 4.8 12.9 0.00 0.00 0.00 94 1010.9
20260506221402 7 15 4.8 12.9 0.00 0.00 0.00 94 1010.8
20260506221302 7 28 9.7 12.9 0.00 0.00 0.00 94 1010.9
20260506221213 7 28 4.8 12.9 0.00 0.00 0.00 93 10.6
20260506221210 7 28 4.8 12.9 0.00 0.00 0.00 94 1010.9
20260506221102 7 36 4.8 8.0 0.00 0.00 0.00 94 1010.8
20260506221004 7 36 3.2 8.0 0.00 0.00 0.00 94 1010.8
20260506220802 7 35 3.2 8.0 0.00 0.00 0.00 94 1010.8
20260506220703 7 35 4.8 8.0 0.00 0.00 0.00 94 1010.8
20260506220604 7 24 3.2 8.0 0.00 0.00 0.00 94 1010.8
20260506220403 7 30 3.2 8.0 0.00 0.00 0.00 94 1010.7
20260506220302 7 28 4.8 8.0 0.00 0.00 0.00 94 1010.6
20260506220202 7 30 4.8 8.0 0.00 0.00 0.00 94 1010.7
20260506215902 7 30 3.2 8.0 0.00 1.78 1.78 94 1010.6
20260506215702 7 30 3.2 6.4 0.00 1.78 1.78 94 1010.7
20260506215504 7 23 0.0 9.7 0.00 1.78 1.78 94 1010.6
20260506215402 7 360 4.8 14.5 0.00 1.78 1.78 94 1010.6
20260506215305 7 11 3.2 14.5 0.00 1.78 1.78 94 1010.6
20260506215214 7 14 4.8 14.5 0.00 1.98 1.98 93 10.4
20260506215210 7 11 4.8 9.7 0.00 1.78 1.78 94 1010.6
20260506215004 7 355 8.0 14.5 0.00 1.78 1.78 94 1010.6
20260506214802 7 13 6.4 12.9 0.00 1.78 1.78 94 1010.5
20260506214504 7 15 8.0 12.9 0.00 1.78 1.78 94 1010.5
20260506214302 7 34 6.4 12.9 0.00 1.78 1.78 94 1010.5
20260506214214 7 32 6.4 12.9 0.00 1.98 1.98 93 10.3
20260506214210 7 32 4.8 12.9 0.00 1.78 1.78 94 1010.5
20260506214102 7 28 4.8 6.4 0.00 1.78 1.78 95 1010.5
20260506213903 7 31 6.4 9.7 0.00 1.78 1.78 95 1010.4
20260506213702 7 38 6.4 9.7 0.00 1.78 1.78 95 1010.4
20260506213504 8 36 4.8 9.7 0.00 1.78 1.78 95 1010.3
20260506213305 8 24 0.0 8.0 0.00 1.78 1.78 95 1010.4
20260506213210 8 18 4.8 9.7 0.00 1.78 1.78 95 1010.4
20260506213203 8 22 6.4 9.7 0.00 1.78 1.78 95 1010.4
20260506213005 8 29 0.0 11.3 0.00 1.78 1.78 95 1010.4
20260506212902 8 22 4.8 11.3 0.00 1.78 1.78 95 1010.4
20260506212602 8 31 4.8 11.3 0.00 1.78 1.78 95 1010.4
20260506212504 8 20 4.8 8.0 0.00 1.78 1.78 95 1010.4
20260506212403 8 32 4.8 8.0 0.00 1.78 1.78 95 1010.4
20260506212210 8 15 4.8 8.0 0.00 1.78 1.78 95 1010.4
20260506212202 8 360 4.8 11.3 0.00 1.78 1.78 95 1010.4
20260506212004 8 22 0.0 11.3 0.00 1.78 1.78 95 1010.4
20260506211802 8 336 4.8 8.0 0.00 1.78 1.78 95 1010.3
20260506211505 8 331 6.4 6.4 0.00 1.78 1.78 95 1010.4
20260506211302 8 327 1.6 6.4 0.00 1.78 1.78 95 1010.3
20260506211213 8 327 4.8 6.4 0.00 1.78 1.78 95 1010.3
20260506211210 8 322 4.8 9.7 0.00 1.78 1.78 95 1010.3
20260506211203 8 349 3.2 8.0 0.00 1.78 1.78 95 1010.3
20260506210903 8 5 8.0 8.0 0.00 1.78 1.78 95 1010.3
20260506210703 8 339 6.4 9.7 0.00 1.78 1.78 95 1010.3
20260506210403 8 351 6.4 9.7 0.00 1.78 1.78 95 1010.3
20260506210302 8 343 3.2 8.0 0.00 1.78 1.78 95 1010.2
20260506210214 8 9 4.8 8.0 0.00 1.78 1.78 95 1010.3
20260506210210 8 343 3.2 8.0 0.00 1.78 1.78 95 1010.2
20260506210104 8 9 4.8 8.0 0.00 1.78 1.78 95 1010.3
20260506205903 8 350 4.8 8.0 0.00 1.78 1.78 95 1010.2
20260506205703 8 21 4.8 8.0 0.00 1.78 1.78 95 1010.2
20260506205503 8 342 0.0 8.0 0.00 1.78 1.78 95 1010.2
20260506205210 8 333 6.4 9.7 0.00 1.98 1.98 93 10.0
20260506205204 8 327 3.2 8.0 0.00 1.78 1.78 95 1010.2
20260506205004 8 342 0.0 8.0 0.00 1.78 1.78 95 1010.2
20260506204902 8 315 1.6 9.7 0.00 1.78 1.78 95 1010.2
20260506204602 8 321 4.8 9.7 0.00 1.78 1.78 95 1010.2
20260506204402 8 40 1.6 9.7 0.00 1.78 1.78 95 1010.2
20260506204210 8 336 3.2 8.0 0.00 1.78 1.78 95 1010.3
20260506204202 8 336 4.8 8.0 0.00 1.78 1.78 95 1010.2
20260506204004 8 345 0.0 8.0 0.00 1.78 1.78 95 1010.2
20260506203903 8 337 4.8 8.0 0.00 1.78 1.78 95 1010.2
20260506203703 8 355 3.2 8.0 0.00 1.78 1.78 95 1010.2
20260506203505 8 351 0.0 8.0 0.00 1.78 1.78 95 1010.3
20260506203402 8 360 3.2 8.0 0.00 1.78 1.78 95 1010.2
20260506203210 8 344 3.2 8.0 0.00 1.78 1.78 95 1010.2
20260506203103 8 348 3.2 6.4 0.00 1.78 1.78 95 1010.2
20260506203006 8 341 3.2 6.4 0.00 1.78 1.78 95 1010.2
20260506202802 8 328 1.6 9.7 0.00 1.78 1.78 95 1010.2
20260506202505 8 342 0.0 9.7 0.00 1.78 1.78 95 1010.1
20260506202306 8 17 3.2 4.8 0.00 1.78 1.78 95 1010.1
20260506202210 8 344 4.8 8.0 0.00 1.98 1.98 93 10.0
20260506202103 8 17 1.6 4.8 0.00 1.78 1.78 95 1010.1
20260506202004 8 17 4.8 6.4 0.00 1.78 1.78 95 1010.1
20260506201803 8 338 4.8 6.4 0.00 1.78 1.78 95 1010.1
20260506201604 8 338 6.4 6.4 0.00 1.78 1.78 95 1010.1
20260506201403 8 31 4.8 6.4 0.00 1.78 1.78 95 1010.1
20260506201211 8 19 3.2 12.9 0.00 1.78 1.78 95 1010.1
20260506201209 8 19 3.2 8.0 0.00 1.78 1.78 95 1010.1
20260506201203 8 19 3.2 12.9 0.00 1.78 1.78 95 1010.1
20260506201003 8 35 4.8 12.9 0.00 1.78 1.78 95 1010.0
20260506200902 8 37 4.8 12.9 0.00 1.78 1.78 95 1010.1
20260506200702 8 20 0.0 14.5 0.00 1.78 1.78 95 1010.0
20260506200403 8 19 1.6 14.5 0.00 1.78 1.78 95 1010.0
20260506200303 8 19 3.2 14.5 0.00 1.78 1.78 95 1010.0
20260506200210 8 18 3.2 12.9 0.00 1.78 1.78 95 1010.0
20260506195902 8 22 6.4 12.9 0.03 1.78 1.78 95 1010.0
20260506195702 8 12 3.2 8.0 0.03 1.78 1.78 95 1010.0
20260506195603 8 346 3.2 4.8 0.03 1.78 1.78 95 1010.0
20260506195402 8 347 4.8 4.8 0.03 1.78 1.78 95 1010.0
20260506195210 8 346 6.4 9.7 0.00 1.98 1.98 93 9.7
20260506195203 8 350 4.8 4.8 0.03 1.78 1.78 95 1010.0
20260506195004 8 344 1.6 8.0 0.03 1.78 1.78 95 1009.9
20260506194702 8 340 3.2 8.0 0.03 1.78 1.78 95 1009.9
20260506194504 8 15 1.6 4.8 0.03 1.78 1.78 95 1009.9
20260506194303 8 10 0.0 6.4 0.03 1.78 1.78 95 1009.9
20260506194214 8 10 3.2 6.4 0.03 1.78 1.78 95 1009.9
20260506194210 8 10 1.6 6.4 0.03 1.78 1.78 95 1009.9
20260506194004 8 9 3.2 9.7 0.03 1.78 1.78 95 1009.9
20260506193703 8 355 1.6 9.7 0.03 1.78 1.78 95 1009.8
20260506193504 8 355 3.2 4.8 0.03 1.78 1.78 95 1009.9
20260506193210 8 355 4.8 6.4 0.03 1.98 1.98 93 9.7
20260506193202 8 355 1.6 4.8 0.03 1.78 1.78 95 1009.9
20260506193004 8 355 3.2 6.4 0.03 1.78 1.78 95 1009.9
20260506192802 8 355 6.4 6.4 0.03 1.78 1.78 95 1009.8
20260506192702 8 340 4.8 6.4 0.03 1.78 1.78 95 1009.8
20260506192403 8 335 3.2 6.4 0.03 1.78 1.78 95 1009.8
20260506192213 8 335 3.2 6.4 0.03 1.78 1.78 95 1009.8
20260506192211 8 335 3.2 6.4 0.03 1.78 1.78 95 1009.7
20260506192203 8 335 0.0 6.4 0.03 1.78 1.78 95 1009.7
20260506192103 8 337 3.2 6.4 0.03 1.78 1.78 95 1009.7
20260506191803 8 336 3.2 6.4 0.03 1.78 1.78 95 1009.7
20260506191702 8 336 1.6 6.4 0.03 1.78 1.78 95 1009.6
20260506191504 8 340 4.8 6.4 0.03 1.78 1.78 95 1009.6
20260506191402 8 340 4.8 6.4 0.03 1.78 1.78 95 1009.7
20260506191211 8 340 3.2 6.4 0.03 1.78 1.78 95 1009.6
20260506191004 8 342 4.8 6.4 0.03 1.78 1.78 95 1009.6
20260506190903 8 341 4.8 6.4 0.03 1.78 1.78 94 1009.5
20260506190603 8 340 4.8 8.0 0.03 1.78 1.78 94 1009.5
20260506190212 8 325 6.4 14.5 0.03 1.78 1.78 95 1009.6
20260506190210 8 329 4.8 14.5 0.03 1.98 1.98 93 9.3
20260506185902 8 343 4.8 8.0 0.00 1.75 1.75 95 1009.5
20260506185702 8 337 4.8 8.0 0.00 1.75 1.75 95 1009.5
20260506185403 8 332 3.2 8.0 0.00 1.75 1.75 95 1009.5
20260506185212 8 360 4.8 8.0 0.00 1.75 1.75 95 1009.5
20260506185210 8 336 3.2 8.0 0.03 1.98 1.98 93 9.3
20260506185202 8 338 4.8 8.0 0.00 1.75 1.75 95 1009.5
20260506185005 8 348 4.8 8.0 0.00 1.75 1.75 95 1009.4
20260506184902 8 348 4.8 8.0 0.03 1.75 1.75 95 1009.4
20260506184802 8 355 4.8 8.0 0.03 1.75 1.75 95 1009.4
20260506184603 8 317 0.0 8.0 0.03 1.75 1.75 95 1009.4
20260506184504 8 318 4.8 8.0 0.03 1.75 1.75 95 1009.4
20260506184202 8 328 1.6 4.8 0.03 1.75 1.75 94 1009.4
20260506183403 8 328 3.2 4.8 0.03 1.75 1.75 94 1009.3
20260506183212 8 328 3.2 4.8 0.03 1.75 1.75 94 1009.3
20260506183209 8 328 4.8 6.4 0.03 1.96 1.96 92 9.1
20260506183005 8 328 3.2 3.2 0.03 1.75 1.75 94 1009.3
20260506182902 8 328 3.2 4.8 0.03 1.75 1.75 94 1009.2
20260506182703 8 328 1.6 4.8 0.03 1.75 1.75 94 1009.2
20260506182504 8 328 3.2 4.8 0.03 1.75 1.75 94 1009.2
20260506182404 8 328 3.2 6.4 0.03 1.75 1.75 94 1009.2
20260506182306 8 341 4.8 6.4 0.03 1.75 1.75 94 1009.1
20260506182212 8 341 4.8 6.4 0.03 1.75 1.75 94 1009.1
20260506182210 8 344 4.8 6.4 0.03 1.96 1.96 92 9.0
20260506182102 8 355 3.2 6.4 0.03 1.75 1.75 94 1009.2
20260506181703 8 355 3.2 6.4 0.03 1.75 1.75 94 1009.1
20260506181504 8 9 3.2 6.4 0.03 1.75 1.75 94 1009.1
20260506181402 8 360 3.2 6.4 0.03 1.75 1.75 94 1009.1
20260506181212 8 360 1.6 8.0 0.03 1.75 1.75 94 1009.0
20260506181210 8 355 3.2 6.4 0.03 1.96 1.96 92 8.9
20260506181202 8 360 3.2 8.0 0.03 1.75 1.75 94 1009.0
20260506180802 8 355 3.2 8.0 0.03 1.75 1.75 94 1009.1
20260506180702 8 10 3.2 6.4 0.05 1.75 1.75 94 1008.9
20260506180303 8 10 1.6 6.4 0.05 1.75 1.75 94 1008.9
20260506180211 8 10 1.6 6.4 0.05 1.75 1.75 94 1008.9
20260506180202 8 10 3.2 6.4 0.05 1.75 1.75 94 1008.9
20260506180006 8 10 4.8 6.4 0.05 1.75 1.75 94 1008.9
20260506175802 8 5 6.4 6.4 0.05 1.75 1.75 94 1008.8
20260506175602 8 9 1.6 6.4 0.05 1.75 1.75 94 1008.9
20260506175403 8 9 1.6 6.4 0.05 1.75 1.75 94 1008.8
20260506175305 8 9 3.2 6.4 0.05 1.75 1.75 94 1008.8
20260506175211 8 9 3.2 6.4 0.05 1.75 1.75 94 1008.8
20260506175202 8 9 3.2 6.4 0.05 1.75 1.75 94 1008.8
20260506174903 8 9 1.6 4.8 0.03 1.73 1.73 94 1008.8
20260506174602 8 9 3.2 4.8 0.03 1.73 1.73 94 1008.7
20260506174402 8 9 3.2 4.8 0.03 1.73 1.73 94 1008.7
20260506174003 8 9 4.8 6.4 0.03 1.73 1.73 94 1008.7
20260506173802 8 9 3.2 6.4 0.03 1.73 1.73 94 1008.7
20260506173603 8 9 0.0 6.4 0.03 1.73 1.73 94 1008.7
20260506173403 8 9 1.6 6.4 0.03 1.73 1.73 94 1008.6
20260506173210 8 9 1.6 6.4 0.03 1.93 1.93 92 8.4
20260506173203 8 9 3.2 6.4 0.03 1.73 1.73 94 1008.6
20260506173005 8 9 0.0 4.8 0.03 1.73 1.73 94 1008.6
20260506172903 8 360 3.2 4.8 0.03 1.73 1.73 94 1008.6
20260506172702 8 9 4.8 4.8 0.03 1.73 1.73 94 1008.5
20260506172403 8 9 3.2 11.3 0.03 1.73 1.73 94 1008.5
20260506172211 8 329 3.2 11.3 0.03 1.73 1.73 94 1008.5
20260506172004 8 11 1.6 11.3 0.03 1.73 1.73 93 1008.5
20260506171903 8 11 3.2 3.2 0.03 1.73 1.73 93 1008.5
20260506171702 8 11 3.2 6.4 0.03 1.73 1.73 93 1008.5
20260506171504 8 11 0.0 6.4 0.03 1.73 1.73 93 1008.5
20260506171403 8 360 4.8 9.7 0.03 1.73 1.73 93 1008.4
20260506171211 8 5 4.8 6.4 0.03 1.73 1.73 93 1008.4
20260506171102 8 9 3.2 9.7 0.03 1.73 1.73 93 1008.4
20260506170903 8 360 6.4 9.7 0.03 1.73 1.73 93 1008.4
20260506170702 8 360 4.8 6.4 0.03 1.73 1.73 93 1008.5
20260506170504 8 344 3.2 6.4 0.00 1.73 1.73 93 1008.4
20260506170302 8 19 1.6 6.4 0.00 1.73 1.73 93 1008.4
20260506170214 8 19 3.2 6.4 0.00 1.73 1.73 93 1008.4
20260506170210 8 9 4.8 12.9 0.00 1.73 1.73 93 1008.4
20260506170006 8 17 0.0 12.9 0.00 1.73 1.73 92 1008.4
20260506165802 8 337 6.4 12.9 0.00 1.73 1.73 93 1008.4
20260506165603 8 39 6.4 9.7 0.00 1.73 1.73 93 1008.5
20260506165503 8 345 6.4 9.7 0.00 1.73 1.73 93 1008.5
20260506165305 8 20 0.0 6.4 0.00 1.73 1.73 92 1008.4
20260506165210 8 20 3.2 12.9 0.03 1.93 1.93 91 8.2
20260506165104 8 360 4.8 6.4 0.00 1.73 1.73 92 1008.5
20260506164902 8 346 3.2 6.4 0.00 1.73 1.73 92 1008.4
20260506164802 8 34 3.2 6.4 0.00 1.73 1.73 92 1008.4
20260506164603 8 36 4.8 8.0 0.00 1.73 1.73 92 1008.4
20260506164403 8 36 8.0 9.7 0.00 1.73 1.73 92 1008.4
20260506164213 8 24 4.8 9.7 0.00 1.73 1.73 92 1008.4
20260506164210 8 45 6.4 12.9 0.00 1.91 1.91 91 8.2
20260506164204 8 24 3.2 9.7 0.00 1.73 1.73 92 1008.4
20260506164103 8 348 3.2 9.7 0.00 1.73 1.73 92 1008.4
20260506164003 8 33 6.4 9.7 0.00 1.73 1.73 92 1008.4
20260506163903 8 9 4.8 12.9 0.00 1.73 1.73 92 1008.4
20260506163502 8 355 6.4 12.9 0.00 1.73 1.73 92 1008.4
20260506163403 8 355 6.4 12.9 0.00 1.73 1.73 92 1008.4
20260506163210 8 22 6.4 9.7 0.00 1.91 1.91 91 8.1
20260506163202 8 15 0.0 6.4 0.00 1.73 1.73 92 1008.4
20260506162902 8 13 1.6 8.0 0.00 1.73 1.73 92 1008.3
20260506162803 8 5 3.2 8.0 0.00 1.73 1.73 92 1008.4
20260506162603 8 5 1.6 8.0 0.00 1.73 1.73 92 1008.3
20260506162402 8 40 4.8 6.4 0.00 1.73 1.73 92 1008.3
20260506162211 8 5 3.2 6.4 0.00 1.73 1.73 92 1008.3
20260506162103 8 12 3.2 8.0 0.00 1.73 1.73 92 1008.2
20260506161803 8 19 0.0 8.0 0.00 1.73 1.73 92 1008.3
20260506161702 8 27 4.8 9.7 0.00 1.73 1.73 92 1008.3
20260506161603 8 27 3.2 9.7 0.00 1.73 1.73 92 1008.3
20260506161402 8 10 6.4 9.7 0.00 1.73 1.73 92 1008.3
20260506161303 8 5 6.4 9.7 0.00 1.73 1.73 92 1008.3
20260506161210 8 5 4.8 12.9 0.00 1.91 1.91 90 8.1
20260506161103 8 19 4.8 14.5 0.00 1.73 1.73 92 1008.3
20260506160904 8 22 3.2 14.5 0.00 1.73 1.73 92 1008.2
20260506160702 8 19 4.8 14.5 0.00 1.73 1.73 92 1008.2
20260506160504 8 5 0.0 12.9 0.00 1.73 1.73 92 1008.2
20260506160403 8 360 4.8 12.9 0.00 1.73 1.73 92 1008.2
20260506155903 8 24 8.0 9.7 0.00 1.73 1.73 92 1008.2
20260506155703 8 355 4.8 9.7 0.00 1.73 1.73 92 1008.1
20260506155505 8 355 8.0 9.7 0.00 1.73 1.73 92 1008.0
20260506155305 8 336 1.6 12.9 0.00 1.73 1.73 92 1008.1
20260506155202 8 349 4.8 12.9 0.00 1.73 1.73 92 1008.0
20260506154903 8 355 8.0 12.9 0.00 1.73 1.73 92 1008.1
20260506154703 8 32 4.8 12.9 0.00 1.73 1.73 92 1008.0
20260506154504 8 20 8.0 12.9 0.00 1.73 1.73 92 1008.0
20260506154302 8 355 3.2 12.9 0.00 1.73 1.73 92 1008.0
20260506154210 8 355 8.0 17.7 0.00 1.73 1.73 92 1008.0
20260506154103 8 360 3.2 11.3 0.00 1.73 1.73 92 1008.0
20260506153902 8 331 6.4 12.9 0.00 1.73 1.73 92 1008.0
20260506153703 8 350 8.0 12.9 0.00 1.73 1.73 92 1008.0
20260506153503 8 360 3.2 12.9 0.00 1.73 1.73 92 1008.0
20260506153303 8 44 9.7 9.7 0.00 1.73 1.73 92 1008.1
20260506153103 8 339 8.0 9.7 0.00 1.73 1.73 92 1008.0
20260506153003 8 340 6.4 9.7 0.00 1.73 1.73 92 1008.0
20260506152703 8 340 6.4 9.7 0.00 1.73 1.73 91 1008.1
20260506152504 8 348 0.0 8.0 0.00 1.73 1.73 91 1008.1
20260506152202 8 355 6.4 8.0 0.00 1.73 1.73 91 1008.1
20260506151903 8 14 6.4 12.9 0.00 1.73 1.73 92 1008.1
20260506151702 8 344 6.4 12.9 0.00 1.73 1.73 92 1008.1
20260506151603 8 340 0.0 14.5 0.00 1.73 1.73 92 1008.1
20260506151403 8 5 8.0 14.5 0.00 1.73 1.73 92 1008.1
20260506151202 8 5 9.7 14.5 0.00 1.73 1.73 92 1008.1
20260506151103 8 351 9.7 14.5 0.00 1.73 1.73 92 1008.0
20260506151005 8 350 6.4 9.7 0.00 1.73 1.73 92 1008.0
20260506150903 8 320 4.8 8.0 0.00 1.73 1.73 91 1008.1
20260506150605 8 342 4.8 14.5 0.00 1.73 1.73 91 1008.0
20260506150403 8 28 6.4 14.5 0.00 1.73 1.73 92 1008.0
20260506150213 8 340 4.8 14.5 0.00 1.73 1.73 92 1008.0
20260506150210 8 340 4.8 14.5 0.00 1.91 1.91 90 7.8
20260506150203 8 342 8.0 14.5 0.00 1.73 1.73 92 1008.0
20260506150005 8 319 4.8 9.7 0.00 1.73 1.73 92 1008.0
20260506145802 8 340 4.8 16.1 0.00 1.73 1.73 92 1007.9
20260506145605 8 302 12.9 16.1 0.00 1.73 1.73 91 1007.9
20260506145402 8 355 6.4 16.1 0.00 1.73 1.73 92 1007.9
20260506145305 8 305 6.4 9.7 0.00 1.73 1.73 92 1007.9
20260506145213 8 336 11.3 16.1 0.00 1.73 1.73 92 1007.9
20260506145210 8 305 4.8 9.7 0.00 1.73 1.73 92 1007.9
20260506145004 8 333 3.2 9.7 0.00 1.73 1.73 92 1007.8
20260506144803 8 360 4.8 14.5 0.00 1.73 1.73 92 1007.8
20260506144603 8 332 6.4 14.5 0.00 1.73 1.73 92 1007.9
20260506144505 8 343 6.4 14.5 0.00 1.73 1.73 92 1007.8
20260506144212 8 15 6.4 14.5 0.00 1.73 1.73 92 1007.8
20260506144210 8 342 8.0 14.5 0.00 1.73 1.73 92 1007.8
20260506144202 8 342 6.4 14.5 0.00 1.73 1.73 92 1007.8
20260506144103 8 355 4.8 14.5 0.00 1.73 1.73 91 1007.8
20260506143802 8 355 6.4 14.5 0.00 1.73 1.73 91 1007.8
20260506143702 8 346 8.0 14.5 0.00 1.73 1.73 91 1007.8
20260506143604 8 16 6.4 14.5 0.00 1.73 1.73 91 1007.8
20260506143402 8 19 6.4 11.3 0.00 1.73 1.73 91 1007.8
20260506143302 8 355 3.2 11.3 0.00 1.73 1.73 91 1007.8
20260506143213 8 41 6.4 11.3 0.00 1.73 1.73 91 1007.8
20260506143210 8 355 6.4 11.3 0.00 1.73 1.73 91 1007.8
20260506143203 8 33 4.8 12.9 0.00 1.73 1.73 91 1007.8
20260506142902 9 331 8.0 12.9 0.00 1.73 1.73 91 1007.7
20260506142802 9 355 8.0 12.9 0.00 1.73 1.73 91 1007.8
20260506142403 9 355 6.4 11.3 0.00 1.73 1.73 92 1007.7
20260506142305 9 355 8.0 14.5 0.00 1.73 1.73 92 1007.7
20260506142210 9 355 4.8 14.5 0.00 1.91 1.91 90 7.5
20260506142203 9 14 3.2 16.1 0.00 1.73 1.73 92 1007.7
20260506142004 9 344 9.7 16.1 0.00 1.73 1.73 92 1007.7
20260506141903 9 336 12.9 16.1 0.00 1.73 1.73 92 1007.8
20260506141703 9 326 6.4 16.1 0.00 1.73 1.73 93 1007.7
20260506141504 9 5 9.7 12.9 0.00 1.73 1.73 93 1007.8
20260506141302 8 360 4.8 12.9 0.00 1.73 1.73 92 1007.8
20260506141210 9 339 8.0 12.9 0.00 1.73 1.73 92 1007.8
20260506141203 8 15 6.4 12.9 0.00 1.73 1.73 92 1007.8
20260506141004 8 341 4.8 12.9 0.00 1.73 1.73 92 1007.8
20260506140802 8 5 0.0 12.9 0.00 1.73 1.73 92 1007.7
20260506140704 8 360 3.2 12.9 0.00 1.73 1.73 92 1007.8
20260506140504 8 360 4.8 12.9 0.00 1.73 1.73 92 1007.8
20260506140402 8 355 4.8 12.9 0.00 1.73 1.73 92 1007.8
20260506140210 8 23 6.4 9.7 0.03 1.73 1.73 92 1007.8
20260506140203 8 23 0.0 9.7 0.03 1.73 1.73 92 1007.8
20260506140005 8 15 4.8 9.7 0.03 1.73 1.73 92 1007.8
20260506135903 8 15 6.4 9.7 0.03 1.73 1.73 92 1007.8
20260506135504 8 337 3.2 9.7 0.03 1.73 1.73 92 1007.8
20260506135305 8 348 4.8 9.7 0.03 1.73 1.73 92 1007.9
20260506135210 8 349 4.8 8.0 0.00 1.91 1.91 90 7.5
20260506135203 8 344 4.8 9.7 0.03 1.73 1.73 92 1007.9
20260506135004 8 360 0.0 14.5 0.03 1.73 1.73 92 1007.8
20260506134903 8 340 12.9 14.5 0.03 1.73 1.73 92 1007.9
20260506134703 8 340 4.8 14.5 0.03 1.73 1.73 92 1007.9
20260506134603 8 355 4.8 11.3 0.03 1.73 1.73 92 1007.9
20260506134504 8 351 6.4 11.3 0.03 1.73 1.73 92 1007.8
20260506134302 8 340 4.8 9.7 0.03 1.73 1.73 92 1007.9
20260506134210 8 355 6.4 14.5 0.03 1.73 1.73 92 1007.8
20260506134203 8 355 6.4 11.3 0.03 1.73 1.73 92 1007.8
20260506133903 9 348 9.7 11.3 0.03 1.73 1.73 92 1007.9
20260506133802 9 14 8.0 11.3 0.03 1.73 1.73 92 1007.8
20260506133703 9 329 4.8 9.7 0.03 1.73 1.73 93 1007.8
20260506133603 9 345 4.8 8.0 0.03 1.73 1.73 92 1007.8
20260506133504 9 344 1.6 9.7 0.03 1.73 1.73 92 1007.8
20260506133304 9 21 4.8 9.7 0.03 1.73 1.73 93 1007.8
20260506133210 9 21 4.8 9.7 0.03 1.73 1.73 93 1007.8
20260506133102 9 335 4.8 12.9 0.05 1.73 1.73 93 1007.8
20260506132703 9 355 3.2 14.5 0.05 1.73 1.73 92 1007.8
20260506132503 9 330 6.4 14.5 0.05 1.73 1.73 92 1007.7
20260506132203 9 360 6.4 16.1 0.05 1.73 1.73 92 1007.7
20260506132006 9 48 0.0 16.1 0.05 1.73 1.73 92 1007.7
20260506131803 9 337 8.0 16.1 0.05 1.73 1.73 92 1007.7
20260506131703 9 340 11.3 14.5 0.05 1.73 1.73 93 1007.7
20260506131503 9 10 6.4 14.5 0.05 1.73 1.73 93 1007.7
20260506131402 9 324 8.0 14.5 0.05 1.73 1.73 93 1007.7
20260506131210 9 360 8.0 14.5 0.05 1.73 1.73 93 1007.7
20260506131202 9 348 3.2 9.7 0.05 1.73 1.73 93 1007.7
20260506131004 9 340 4.8 16.1 0.05 1.73 1.73 93 1007.7
20260506130802 9 41 9.7 16.1 0.05 1.73 1.73 93 1007.6
20260506130702 9 321 9.7 16.1 0.05 1.73 1.73 93 1007.6
20260506130604 9 10 4.8 16.1 0.05 1.73 1.73 93 1007.6
20260506130403 9 360 4.8 8.0 0.05 1.73 1.73 93 1007.6
20260506130302 9 323 4.8 8.0 0.05 1.70 1.70 93 1007.6
20260506130210 8 335 4.8 8.0 0.05 1.70 1.70 93 1007.6
20260506130203 8 335 4.8 8.0 0.05 1.70 1.70 93 1007.6
20260506125603 8 17 6.4 14.5 0.05 1.70 1.70 93 1007.6
20260506125402 8 32 4.8 12.9 0.05 1.70 1.70 93 1007.5
20260506125210 8 36 4.8 12.9 0.05 1.91 1.91 91 7.3
20260506125202 8 5 8.0 12.9 0.05 1.70 1.70 93 1007.5
20260506125005 8 15 3.2 11.3 0.05 1.70 1.70 93 1007.5
20260506124803 8 337 4.8 9.7 0.05 1.70 1.70 93 1007.5
20260506124602 8 25 6.4 9.7 0.05 1.70 1.70 93 1007.5
20260506124303 8 5 6.4 12.9 0.05 1.70 1.70 93 1007.4
20260506124210 8 355 4.8 12.9 0.05 1.70 1.70 93 1007.4
20260506124203 8 355 8.0 12.9 0.05 1.70 1.70 93 1007.4
20260506124003 8 10 6.4 12.9 0.05 1.70 1.70 93 1007.4
20260506123903 8 339 6.4 12.9 0.05 1.70 1.70 93 1007.4
20260506123703 8 17 6.4 11.3 0.05 1.70 1.70 93 1007.3
20260506123504 8 26 0.0 12.9 0.05 1.70 1.70 93 1007.4
20260506123210 8 20 3.2 14.5 0.05 1.70 1.70 93 1007.3
20260506123202 8 46 6.4 12.9 0.05 1.68 1.68 93 1007.3
20260506123103 8 9 6.4 12.9 0.05 1.68 1.68 93 1007.4
20260506122903 8 333 8.0 12.9 0.05 1.68 1.68 93 1007.3
20260506122703 8 346 6.4 12.9 0.05 1.68 1.68 93 1007.3
20260506122505 8 20 8.0 14.5 0.05 1.68 1.68 93 1007.3
20260506122403 8 345 8.0 14.5 0.05 1.68 1.68 93 1007.3
20260506122210 9 16 4.8 14.5 0.05 1.68 1.68 93 1007.3
20260506122203 9 30 4.8 14.5 0.05 1.68 1.68 93 1007.3
20260506122104 9 348 0.0 14.5 0.05 1.68 1.68 93 1007.3
20260506121702 9 343 8.0 14.5 0.05 1.68 1.68 93 1007.3
20260506121403 9 333 1.6 12.9 0.08 1.68 1.68 93 1007.2
20260506121210 9 355 4.8 12.9 0.08 1.68 1.68 93 1007.2
20260506121203 9 355 4.8 12.9 0.08 1.68 1.68 93 1007.2
20260506121006 8 5 4.8 12.9 0.08 1.68 1.68 93 1007.2
20260506120803 8 33 3.2 9.7 0.08 1.68 1.68 93 1007.2
20260506120703 8 355 6.4 9.7 0.08 1.68 1.68 93 1007.2
20260506120504 8 28 6.4 14.5 0.08 1.68 1.68 93 1007.1
20260506120302 8 12 4.8 14.5 0.05 1.65 1.65 93 1007.2
20260506115904 8 17 4.8 16.1 0.05 1.65 1.65 93 1007.1
20260506115702 9 342 8.0 16.1 0.05 1.65 1.65 93 1007.1
20260506115504 9 9 0.0 16.1 0.05 1.65 1.65 93 1007.0
20260506115210 9 30 9.7 16.1 0.05 1.88 1.88 91 6.8
20260506115203 9 329 8.0 12.9 0.05 1.65 1.65 93 1007.0
20260506115103 9 360 4.8 11.3 0.05 1.65 1.65 93 1007.1
20260506115003 9 343 6.4 11.3 0.05 1.65 1.65 93 1007.0
20260506114603 10 350 0.0 9.7 0.05 1.65 1.65 93 1006.9
20260506114505 9 360 4.8 9.7 0.05 1.65 1.65 93 1007.0
20260506114303 9 355 4.8 12.9 0.05 1.65 1.65 93 1006.9
20260506114203 9 28 4.8 12.9 0.05 1.65 1.65 93 1007.0
20260506114103 9 5 12.9 12.9 0.05 1.65 1.65 93 1006.9
20260506113903 9 32 0.0 12.9 0.05 1.65 1.65 93 1006.9
20260506113802 9 5 4.8 11.3 0.05 1.65 1.65 93 1006.9
20260506113703 9 5 8.0 11.3 0.05 1.65 1.65 93 1006.9
20260506113503 9 32 3.2 11.3 0.05 1.65 1.65 93 1006.9
20260506113403 10 22 6.4 9.7 0.05 1.65 1.65 93 1006.9
20260506113302 10 23 0.0 12.9 0.05 1.63 1.63 93 1007.0
20260506113210 10 40 4.8 14.5 0.05 1.63 1.63 93 1006.9
20260506112803 10 19 8.0 12.9 0.05 1.63 1.63 93 1006.9
20260506112703 10 36 4.8 9.7 0.05 1.63 1.63 93 1006.8
20260506112504 10 349 0.0 8.0 0.05 1.63 1.63 93 1006.8
20260506112402 10 360 4.8 8.0 0.03 1.63 1.63 93 1006.8
20260506112210 10 5 4.8 8.0 0.03 1.63 1.63 93 1006.8
20260506112104 10 11 4.8 9.7 0.03 1.63 1.63 93 1006.8
20260506112005 10 31 4.8 11.3 0.03 1.63 1.63 93 1006.8
20260506111803 10 355 4.8 11.3 0.03 1.63 1.63 93 1006.8
20260506111602 10 333 4.8 14.5 0.03 1.63 1.63 93 1006.8
20260506111402 10 360 4.8 14.5 0.00 1.60 1.60 93 1006.7
20260506111210 10 317 6.4 14.5 0.00 1.60 1.60 93 1006.7
20260506111202 10 317 6.4 14.5 0.00 1.60 1.60 93 1006.7
20260506111004 10 344 0.0 14.5 0.00 1.60 1.60 93 1006.7
20260506110902 10 360 6.4 14.5 0.00 1.60 1.60 93 1006.7
20260506110802 10 346 6.4 16.1 0.00 1.60 1.60 93 1006.7
20260506110603 10 329 6.4 16.1 0.00 1.60 1.60 93 1006.7
20260506110504 10 342 8.0 16.1 0.00 1.60 1.60 93 1006.7
20260506110302 10 333 4.8 16.1 0.00 1.60 1.60 94 1006.7
20260506105903 9 333 4.8 14.5 0.00 1.60 1.60 93 1006.7
20260506105602 10 14 4.8 9.7 0.00 1.60 1.60 93 1006.7
20260506105504 9 340 0.0 9.7 0.03 1.60 1.60 93 1006.8
20260506105305 9 360 3.2 9.7 0.03 1.60 1.60 93 1006.8
20260506105210 9 330 4.8 12.9 0.03 1.80 1.80 92 6.5
20260506105005 10 33 6.4 9.7 0.03 1.60 1.60 93 1006.8
20260506104802 10 350 6.4 9.7 0.03 1.60 1.60 93 1006.7
20260506104602 10 355 6.4 12.9 0.03 1.60 1.60 93 1006.7
20260506104505 10 355 4.8 12.9 0.03 1.60 1.60 93 1006.7
20260506104402 10 355 4.8 12.9 0.03 1.60 1.60 93 1006.7
20260506104210 10 17 4.8 16.1 0.03 1.60 1.60 93 1006.7
20260506104103 10 343 6.4 12.9 0.03 1.60 1.60 93 1006.7
20260506103902 10 337 11.3 12.9 0.03 1.60 1.60 93 1006.7
20260506103802 10 346 9.7 12.9 0.03 1.60 1.60 93 1006.7
20260506103703 10 355 6.4 12.9 0.03 1.60 1.60 93 1006.7
20260506103404 10 341 3.2 8.0 0.03 1.60 1.60 93 1006.7
20260506103211 10 343 8.0 20.9 0.03 1.60 1.60 93 1006.6
20260506103202 10 323 8.0 19.3 0.03 1.60 1.60 93 1006.6
20260506103005 10 336 11.3 19.3 0.03 1.60 1.60 93 1006.7
20260506102903 10 333 17.7 19.3 0.03 1.60 1.60 93 1006.6
20260506102703 10 324 6.4 11.3 0.05 1.60 1.60 93 1006.6
20260506102505 10 350 3.2 11.3 0.05 1.60 1.60 93 1006.6
20260506102210 10 317 4.8 12.9 0.05 1.60 1.60 94 1006.6
20260506102203 10 338 4.8 12.9 0.05 1.60 1.60 94 1006.6
20260506102104 10 349 6.4 12.9 0.05 1.60 1.60 93 1006.5
20260506101803 10 26 6.4 14.5 0.05 1.60 1.60 94 1006.6
20260506101702 10 38 4.8 14.5 0.05 1.60 1.60 94 1006.5
20260506101210 10 24 4.8 16.1 0.05 1.60 1.60 94 1006.5
20260506101202 10 24 3.2 14.5 0.05 1.60 1.60 94 1006.5
20260506101103 10 42 1.6 16.1 0.05 1.60 1.60 94 1006.5
20260506101006 10 42 12.9 16.1 0.05 1.60 1.60 94 1006.5
20260506100903 10 26 0.0 16.1 0.08 1.60 1.60 94 1006.5
20260506100802 10 45 6.4 16.1 0.08 1.60 1.60 94 1006.4
20260506100603 10 345 4.8 12.9 0.08 1.60 1.60 94 1006.5
20260506100503 10 351 4.8 12.9 0.08 1.60 1.60 94 1006.5
20260506100302 10 5 8.0 12.9 0.08 1.60 1.60 94 1006.4
20260506095903 10 350 3.2 8.0 0.10 1.60 1.60 94 1006.4
20260506095802 10 24 3.2 8.0 0.10 1.60 1.60 94 1006.4
20260506095703 10 26 1.6 8.0 0.10 1.60 1.60 94 1006.4
20260506095604 10 27 4.8 9.7 0.10 1.60 1.60 94 1006.4
20260506095403 10 13 3.2 9.7 0.08 1.57 1.57 94 1006.4
20260506095305 10 348 4.8 9.7 0.08 1.57 1.57 94 1006.4
20260506095210 10 345 4.8 12.9 0.08 1.57 1.57 94 1006.4
20260506095203 10 345 4.8 12.9 0.08 1.57 1.57 94 1006.4
20260506095005 10 315 9.7 12.9 0.08 1.57 1.57 94 1006.4
20260506094902 10 337 8.0 12.9 0.08 1.57 1.57 94 1006.4
20260506094702 10 333 4.8 8.0 0.08 1.57 1.57 94 1006.4
20260506094603 10 355 4.8 8.0 0.10 1.57 1.57 94 1006.4
20260506094504 10 348 6.4 8.0 0.10 1.57 1.57 94 1006.4
20260506094302 10 360 3.2 8.0 0.10 1.57 1.57 94 1006.4
20260506094104 10 5 4.8 6.4 0.10 1.57 1.57 94 1006.4
20260506094004 10 355 4.8 6.4 0.10 1.57 1.57 94 1006.4
20260506093903 10 11 6.4 6.4 0.10 1.57 1.57 94 1006.4
20260506093802 10 23 3.2 11.3 0.10 1.57 1.57 94 1006.4
20260506093702 10 11 4.8 11.3 0.10 1.57 1.57 94 1006.4
20260506093503 9 351 8.0 11.3 0.10 1.57 1.57 94 1006.4
20260506093402 10 337 4.8 11.3 0.10 1.57 1.57 94 1006.4
20260506093210 10 321 3.2 8.0 0.10 1.57 1.57 94 1006.3
20260506093103 9 9 3.2 9.7 0.10 1.57 1.57 94 1006.3
20260506092902 9 5 4.8 9.7 0.10 1.57 1.57 94 1006.3
20260506092803 9 5 4.8 9.7 0.08 1.55 1.55 94 1006.3
20260506092703 9 339 9.7 9.7 0.08 1.55 1.55 94 1006.3
20260506092603 9 346 3.2 8.0 0.08 1.55 1.55 94 1006.3
20260506092402 9 12 3.2 8.0 0.08 1.55 1.55 94 1006.2
20260506092210 9 360 3.2 8.0 0.10 1.78 1.78 93 6.0
20260506092103 9 336 0.0 8.0 0.08 1.55 1.55 94 1006.2
20260506092004 9 346 4.8 8.0 0.08 1.55 1.55 94 1006.2
20260506091902 9 346 6.4 8.0 0.08 1.55 1.55 94 1006.2
20260506091802 9 344 6.4 8.0 0.05 1.55 1.55 94 1006.2
20260506091602 9 336 0.0 12.9 0.05 1.55 1.55 94 1006.2
20260506091504 9 11 3.2 12.9 0.05 1.55 1.55 94 1006.2
20260506091303 9 11 4.8 12.9 0.05 1.55 1.55 94 1006.2
20260506091213 9 11 6.4 12.9 0.05 1.55 1.55 94 1006.2
20260506091210 9 11 3.2 12.9 0.05 1.73 1.73 93 5.9
20260506091203 9 5 4.8 12.9 0.05 1.55 1.55 94 1006.2
20260506091103 9 31 4.8 12.9 0.05 1.55 1.55 94 1006.3
20260506090902 9 10 4.8 11.3 0.05 1.52 1.52 94 1006.3
20260506090703 9 338 6.4 11.3 0.05 1.52 1.52 94 1006.3
20260506090504 9 349 0.0 12.9 0.05 1.52 1.52 94 1006.2
20260506090303 9 360 6.4 12.9 0.05 1.52 1.52 94 1006.2
20260506090213 9 11 6.4 14.5 0.05 1.52 1.52 94 1006.2
20260506090210 9 360 4.8 14.5 0.05 1.70 1.70 93 5.9
20260506090203 9 322 6.4 12.9 0.05 1.50 1.50 94 1006.2
20260506085902 9 11 3.2 12.9 0.05 1.50 1.50 94 1006.2
20260506085703 9 19 6.4 8.0 0.05 1.50 1.50 94 1006.2
20260506085504 9 351 3.2 8.0 0.05 1.50 1.50 94 1006.2
20260506085213 9 22 4.8 8.0 0.05 1.50 1.50 94 1006.1
20260506085210 9 320 4.8 8.0 0.05 1.70 1.70 93 5.9
20260506085203 9 22 4.8 8.0 0.05 1.50 1.50 94 1006.1
20260506085103 9 44 4.8 8.0 0.05 1.50 1.50 94 1006.1
20260506085004 9 342 4.8 8.0 0.05 1.50 1.50 94 1006.1
20260506084903 9 21 0.0 8.0 0.05 1.50 1.50 94 1006.0
20260506084602 9 315 3.2 11.3 0.03 1.47 1.47 94 1006.1
20260506084504 9 304 3.2 11.3 0.03 1.47 1.47 94 1006.0
20260506084303 9 360 3.2 11.3 0.03 1.47 1.47 94 1006.0
20260506084213 9 350 4.8 11.3 0.03 1.47 1.47 94 1006.0
20260506084210 9 355 3.2 11.3 0.05 1.70 1.70 93 5.8
20260506084203 9 350 3.2 11.3 0.03 1.47 1.47 94 1006.0
20260506084004 9 355 6.4 14.5 0.03 1.47 1.47 94 1006.0
20260506083903 9 11 4.8 14.5 0.03 1.47 1.47 94 1006.0
20260506083702 9 10 9.7 14.5 0.03 1.47 1.47 94 1005.9
20260506083504 9 20 0.0 11.3 0.03 1.47 1.47 94 1005.9
20260506083304 9 360 4.8 9.7 0.03 1.47 1.47 94 1005.9
20260506083213 9 9 3.2 12.9 0.03 1.47 1.47 94 1005.9
20260506083210 9 30 3.2 9.7 0.03 1.68 1.68 93 5.6
20260506083102 9 9 3.2 6.4 0.03 1.47 1.47 94 1005.9
20260506082903 9 355 6.4 8.0 0.03 1.47 1.47 94 1005.8
20260506082802 9 10 4.8 11.3 0.03 1.47 1.47 94 1005.8
20260506082602 9 5 4.8 11.3 0.03 1.47 1.47 94 1005.8
20260506082402 9 16 4.8 11.3 0.03 1.47 1.47 94 1005.8
20260506082213 9 347 6.4 11.3 0.03 1.47 1.47 95 1005.7
20260506082210 9 347 6.4 14.5 0.03 1.47 1.47 94 1005.8
20260506082203 9 347 8.0 14.5 0.03 1.47 1.47 94 1005.8
20260506082003 9 51 6.4 14.5 0.03 1.47 1.47 94 1005.8
20260506081902 9 57 4.8 14.5 0.03 1.47 1.47 94 1005.8
20260506081703 9 13 3.2 11.3 0.03 1.47 1.47 94 1005.8
20260506081503 9 13 4.8 11.3 0.03 1.47 1.47 94 1005.8
20260506081402 9 15 6.4 11.3 0.03 1.47 1.47 94 1005.8
20260506081303 9 32 4.8 9.7 0.03 1.47 1.47 95 1005.8
20260506081210 9 32 6.4 9.7 0.03 1.68 1.68 93 5.5
20260506081105 9 5 0.0 9.7 0.03 1.47 1.47 94 1005.8
20260506080903 9 360 6.4 9.7 0.05 1.47 1.47 94 1005.7
20260506080803 9 30 3.2 9.7 0.05 1.47 1.47 94 1005.7
20260506080704 9 34 3.2 17.7 0.05 1.47 1.47 94 1005.7
20260506080504 9 26 4.8 17.7 0.05 1.47 1.47 94 1005.7
20260506080402 9 12 9.7 17.7 0.05 1.47 1.47 94 1005.7
20260506073302 9 23 8.0 17.7 0.05 1.47 1.47 95 1005.5
20260506073210 9 26 6.4 16.1 0.05 1.47 1.47 95 1005.4
20260506073203 9 29 8.0 17.7 0.05 1.47 1.47 95 1005.4
20260506073005 9 17 8.0 14.5 0.05 1.47 1.47 95 1005.5
20260506072903 9 40 8.0 14.5 0.05 1.47 1.47 95 1005.5
20260506072803 9 12 4.8 14.5 0.05 1.47 1.47 95 1005.4
20260506072603 9 12 3.2 11.3 0.05 1.47 1.47 95 1005.5
20260506072210 9 17 4.8 14.5 0.05 1.65 1.65 93 5.1
20260506072204 9 33 4.8 14.5 0.05 1.47 1.47 95 1005.4
20260506072004 9 38 3.2 16.1 0.05 1.47 1.47 95 1005.3
20260506071802 9 15 6.4 16.1 0.05 1.47 1.47 95 1005.4
20260506071702 9 12 11.3 16.1 0.05 1.47 1.47 95 1005.4
20260506071603 9 32 9.7 16.1 0.05 1.47 1.47 95 1005.3
20260506071504 9 350 6.4 16.1 0.05 1.47 1.47 95 1005.3
20260506071303 9 53 0.0 12.9 0.05 1.47 1.47 95 1005.3
20260506071210 9 53 6.4 14.5 0.05 1.47 1.47 95 1005.3
20260506071202 9 9 3.2 12.9 0.05 1.47 1.47 95 1005.3
20260506071006 9 9 8.0 12.9 0.05 1.47 1.47 95 1005.3
20260506070803 9 21 6.4 20.9 0.05 1.45 1.45 95 1005.4
20260506070703 9 32 4.8 20.9 0.05 1.45 1.45 95 1005.4
20260506070604 9 25 14.5 20.9 0.05 1.45 1.45 95 1005.4
20260506070402 9 24 1.6 14.5 0.05 1.45 1.45 95 1005.3
20260506070302 9 28 6.4 14.5 0.05 1.45 1.45 95 1005.4
20260506070213 9 28 1.6 17.7 0.05 1.45 1.45 95 1005.4
20260506070211 9 28 1.6 17.7 0.08 1.65 1.65 93 5.1
20260506070203 9 28 9.7 17.7 0.05 1.45 1.45 95 1005.4
20260506062503 9 30 6.4 12.9 0.10 1.42 1.42 95 1005.1
20260506062305 9 37 3.2 19.3 0.13 1.42 1.42 95 1005.2
20260506062213 9 32 6.4 19.3 0.13 1.42 1.42 95 1005.1
20260506062211 9 37 4.8 19.3 0.13 1.42 1.42 95 1005.2
20260506062202 9 37 4.8 19.3 0.13 1.42 1.42 95 1005.2
20260506062103 9 5 4.8 19.3 0.10 1.40 1.40 95 1005.2
20260506062006 9 355 8.0 19.3 0.10 1.40 1.40 95 1005.1
20260506061802 9 22 4.8 14.5 0.10 1.40 1.40 95 1005.1
20260506061603 9 351 4.8 9.7 0.10 1.40 1.40 95 1005.1
20260506061505 9 26 0.0 9.7 0.13 1.40 1.40 95 1005.1
20260506061402 9 40 9.7 9.7 0.13 1.40 1.40 95 1005.1
20260506061213 9 24 4.8 9.7 0.13 1.40 1.40 95 1005.1
20260506061211 9 36 9.7 17.7 0.13 1.60 1.60 94 4.9
20260506061203 9 24 8.0 9.7 0.13 1.40 1.40 95 1005.1
20260506061005 9 45 0.0 9.7 0.13 1.40 1.40 95 1005.1
20260506060903 9 22 4.8 16.1 0.13 1.40 1.40 95 1005.0
20260506060704 9 13 11.3 16.1 0.13 1.40 1.40 95 1005.0
20260506060603 9 15 4.8 16.1 0.13 1.40 1.40 95 1005.1
20260506060402 9 25 6.4 9.7 0.13 1.40 1.40 95 1005.1
20260506060303 9 52 3.2 9.7 0.13 1.40 1.40 95 1005.1
20260506060213 9 31 6.4 12.9 0.13 1.40 1.40 95 1005.1
20260506060211 9 52 4.8 9.7 0.13 1.40 1.40 95 1005.1
20260506051303 8 28 4.8 8.0 0.10 1.30 1.30 95 1005.1
20260506051214 8 355 3.2 9.7 0.10 1.30 1.30 95 1005.1
20260506051211 8 355 3.2 9.7 0.10 1.45 1.45 93 4.8
20260506051004 8 11 3.2 6.4 0.10 1.30 1.30 95 1005.1
20260506050902 8 26 4.8 6.4 0.10 1.30 1.30 95 1005.1
20260506050802 8 43 4.8 6.4 0.10 1.30 1.30 95 1005.1
20260506050702 8 14 3.2 6.4 0.08 1.27 1.27 95 1005.1
20260506050603 8 349 4.8 6.4 0.08 1.27 1.27 95 1005.1
20260506050503 8 349 3.2 6.4 0.08 1.27 1.27 95 1005.1
20260506050215 8 351 3.2 4.8 0.08 1.27 1.27 95 1005.1
20260506050213 8 11 4.8 9.7 0.08 1.27 1.27 95 1005.1
20260506050211 8 11 3.2 8.0 0.10 1.45 1.45 94 4.8
20260506050203 8 351 3.2 4.8 0.08 1.27 1.27 95 1005.1
20260506045004 8 9 1.6 6.4 0.08 1.24 1.24 95 1005.1
20260506044902 8 337 4.8 6.4 0.08 1.24 1.24 95 1005.1
20260506044803 8 360 0.0 6.4 0.08 1.24 1.24 95 1005.1
20260506044603 8 5 3.2 8.0 0.10 1.24 1.24 95 1005.1
20260506044504 8 344 3.2 8.0 0.10 1.24 1.24 95 1005.1
20260506044403 8 355 4.8 8.0 0.08 1.22 1.22 95 1005.1
20260506044302 8 37 3.2 8.0 0.08 1.22 1.22 95 1005.1
20260506044211 8 355 4.8 8.0 0.10 1.40 1.40 94 4.9
20260506044103 8 346 3.2 6.4 0.08 1.22 1.22 95 1005.1
20260506043703 8 5 3.2 6.4 0.08 1.22 1.22 95 1005.1
20260506043603 8 17 3.2 4.8 0.10 1.22 1.22 95 1005.1
20260506043403 8 342 1.6 4.8 0.10 1.22 1.22 95 1005.1
20260506043302 8 339 4.8 4.8 0.10 1.22 1.22 95 1005.1
20260506043211 8 338 3.2 6.4 0.08 1.22 1.22 95 1005.1
20260506043203 8 338 3.2 6.4 0.08 1.22 1.22 95 1005.1
20260506043004 8 334 3.2 6.4 0.08 1.22 1.22 95 1005.1
20260506042903 8 333 4.8 6.4 0.08 1.22 1.22 95 1005.1
20260506042703 8 360 1.6 6.4 0.10 1.22 1.22 95 1005.1
20260506042506 8 5 3.2 6.4 0.10 1.22 1.22 95 1005.1
20260506042403 8 9 3.2 6.4 0.10 1.22 1.22 95 1005.1
20260506042211 8 31 3.2 6.4 0.10 1.22 1.22 95 1005.1
20260506042203 8 348 3.2 6.4 0.10 1.22 1.22 95 1005.1
20260506042104 8 350 1.6 6.4 0.10 1.22 1.22 95 1005.1
20260506042004 8 350 4.8 6.4 0.13 1.22 1.22 95 1005.1
20260506041903 8 351 4.8 6.4 0.13 1.22 1.22 95 1005.1
20260506041602 8 350 3.2 6.4 0.10 1.19 1.19 95 1005.1
20260506041505 8 350 4.8 6.4 0.10 1.19 1.19 95 1005.1
20260506041404 8 349 4.8 6.4 0.13 1.19 1.19 95 1005.1
20260506041302 8 339 3.2 6.4 0.13 1.19 1.19 95 1005.1
20260506041211 8 339 4.8 8.0 0.13 1.19 1.19 95 1005.1
20260506041203 8 335 4.8 6.4 0.13 1.19 1.19 95 1005.1
20260506041005 8 327 4.8 8.0 0.13 1.19 1.19 95 1005.1
20260506040902 8 339 3.2 8.0 0.13 1.19 1.19 95 1005.1
20260506040803 8 339 4.8 8.0 0.13 1.19 1.19 95 1005.1
20260506040703 8 339 6.4 8.0 0.13 1.19 1.19 95 1005.1
20260506040602 8 336 3.2 8.0 0.13 1.19 1.19 95 1005.2
20260506040505 8 315 3.2 8.0 0.13 1.19 1.19 95 1005.2
20260506040211 8 336 3.2 11.3 0.13 1.19 1.19 95 1005.1
20260506040005 8 355 8.0 11.3 0.13 1.17 1.17 95 1005.2
20260506035903 8 338 3.2 11.3 0.13 1.17 1.17 95 1005.1
20260506035802 8 351 4.8 9.7 0.13 1.17 1.17 95 1005.2
20260506035704 8 351 3.2 9.7 0.13 1.17 1.17 95 1005.2
20260506035603 8 344 6.4 9.7 0.13 1.17 1.17 95 1005.2
20260506035504 8 339 6.4 9.7 0.13 1.17 1.17 95 1005.2
20260506035402 8 346 3.2 9.7 0.13 1.17 1.17 95 1005.2
20260506035211 8 335 3.2 8.0 0.13 1.17 1.17 95 1005.2
20260506035202 8 335 4.8 4.8 0.13 1.17 1.17 95 1005.2
20260506035102 8 331 3.2 6.4 0.13 1.17 1.17 95 1005.1
20260506035003 8 327 3.2 6.4 0.13 1.17 1.17 95 1005.1
20260506034802 8 338 4.8 6.4 0.13 1.14 1.14 95 1005.1
20260506034702 8 338 1.6 6.4 0.13 1.14 1.14 95 1005.1
20260506034504 8 340 4.8 9.7 0.13 1.14 1.14 95 1005.2
20260506034405 8 338 1.6 9.7 0.13 1.14 1.14 95 1005.2
20260506034303 8 334 3.2 9.7 0.13 1.14 1.14 95 1005.2
20260506034211 8 341 4.8 9.7 0.13 1.14 1.14 95 1005.2
20260506034004 8 335 3.2 8.0 0.13 1.14 1.14 95 1005.2
20260506033903 8 317 4.8 8.0 0.13 1.14 1.14 95 1005.1
20260506033803 8 10 4.8 8.0 0.13 1.14 1.14 95 1005.2
20260506033603 8 335 3.2 12.9 0.13 1.14 1.14 95 1005.2
20260506033503 8 335 4.8 12.9 0.13 1.14 1.14 95 1005.2
20260506033303 8 328 6.4 12.9 0.13 1.14 1.14 95 1005.2
20260506033202 8 323 3.2 12.9 0.13 1.14 1.14 95 1005.2
20260506033006 8 325 3.2 8.0 0.13 1.14 1.14 95 1005.2
20260506032902 8 318 4.8 8.0 0.13 1.14 1.14 95 1005.2
20260506032802 8 17 4.8 8.0 0.13 1.14 1.14 95 1005.2
20260506032702 8 337 4.8 6.4 0.13 1.12 1.12 95 1005.2
20260506032603 8 348 1.6 6.4 0.13 1.12 1.12 95 1005.3
20260506032403 8 340 3.2 6.4 0.13 1.12 1.12 95 1005.3
20260506032305 8 37 3.2 8.0 0.13 1.12 1.12 95 1005.2
20260506032211 8 37 3.2 8.0 0.13 1.27 1.27 93 5.0
20260506032102 8 24 3.2 8.0 0.13 1.12 1.12 95 1005.2
20260506032004 8 28 3.2 8.0 0.10 1.09 1.09 95 1005.2
20260506031903 8 28 1.6 11.3 0.10 1.09 1.09 95 1005.3
20260506031803 8 355 3.2 11.3 0.10 1.09 1.09 95 1005.2
20260506031702 8 355 3.2 11.3 0.13 1.09 1.09 95 1005.3
20260506031505 8 15 3.2 11.3 0.13 1.09 1.09 95 1005.2
20260506031302 8 11 3.2 8.0 0.10 1.07 1.07 95 1005.3
20260506031211 8 355 4.8 11.3 0.13 1.19 1.19 93 5.0
20260506031003 8 24 0.0 11.3 0.10 1.07 1.07 95 1005.3
20260506030803 8 360 4.8 11.3 0.10 1.04 1.04 95 1005.3
20260506030504 8 333 4.8 9.7 0.10 1.04 1.04 95 1005.3
20260506030303 8 5 6.4 9.7 0.10 1.04 1.04 95 1005.4
20260506030211 8 5 4.8 9.7 0.10 1.04 1.04 95 1005.4
20260506030103 8 13 4.8 8.0 0.13 1.04 1.04 95 1005.4
20260506025903 8 360 4.8 8.0 0.13 1.04 1.04 95 1005.4
20260506025802 8 350 4.8 8.0 0.10 1.04 1.04 95 1005.4
20260506025603 8 22 4.8 12.9 0.10 1.04 1.04 95 1005.4
20260506025503 8 5 3.2 12.9 0.10 1.04 1.04 95 1005.5
20260506025305 8 5 4.8 12.9 0.10 1.04 1.04 95 1005.5
20260506025202 8 9 3.2 12.9 0.10 1.04 1.04 95 1005.5
20260506025103 8 17 4.8 12.9 0.13 1.04 1.04 95 1005.5
20260506024903 8 5 3.2 8.0 0.13 1.04 1.04 95 1005.5
20260506024803 8 34 4.8 8.0 0.13 1.04 1.04 95 1005.6
20260506024702 8 24 4.8 8.0 0.13 1.04 1.04 95 1005.5
20260506024603 8 355 3.2 8.0 0.13 1.04 1.04 95 1005.6
20260506024503 8 30 3.2 6.4 0.13 1.04 1.04 95 1005.5
20260506024403 8 11 3.2 4.8 0.13 1.04 1.04 95 1005.5
20260506024302 8 355 3.2 4.8 0.13 1.04 1.04 95 1005.6
20260506024210 8 355 3.2 4.8 0.13 1.04 1.04 95 1005.6
20260506024203 9 12 1.6 4.8 0.13 1.04 1.04 95 1005.5
20260506024103 8 360 1.6 6.4 0.13 1.04 1.04 95 1005.5
20260506024005 9 360 3.2 6.4 0.13 1.02 1.02 95 1005.5
20260506023904 8 360 3.2 6.4 0.13 1.02 1.02 95 1005.6
20260506023702 9 360 3.2 6.4 0.13 1.02 1.02 95 1005.6
20260506023602 9 323 3.2 6.4 0.13 1.02 1.02 95 1005.6
20260506023403 9 349 3.2 6.4 0.13 1.02 1.02 95 1005.6
20260506023210 9 337 3.2 6.4 0.13 1.02 1.02 95 1005.7
20260506023202 9 343 3.2 6.4 0.13 1.02 1.02 95 1005.6
20260506023103 9 19 3.2 6.4 0.13 1.02 1.02 95 1005.7
20260506023004 9 19 1.6 6.4 0.13 1.02 1.02 95 1005.7
20260506022902 9 19 3.2 6.4 0.13 1.02 1.02 95 1005.7
20260506022702 9 19 3.2 6.4 0.13 0.99 0.99 95 1005.7
20260506022506 9 18 3.2 8.0 0.13 0.99 0.99 95 1005.7
20260506022402 9 19 4.8 8.0 0.13 0.99 0.99 95 1005.7
20260506022305 9 25 4.8 8.0 0.13 0.99 0.99 95 1005.7
20260506022211 9 25 3.2 6.4 0.13 0.99 0.99 95 1005.7
20260506022203 9 28 1.6 8.0 0.13 0.99 0.99 95 1005.7
20260506022103 9 314 3.2 4.8 0.13 0.99 0.99 95 1005.8
20260506021803 9 314 3.2 4.8 0.15 0.99 0.99 95 1005.7
20260506021702 9 314 3.2 8.0 0.13 0.97 0.97 95 1005.7
20260506021602 9 314 4.8 8.0 0.13 0.97 0.97 95 1005.7
20260506021403 9 313 4.8 8.0 0.13 0.97 0.97 95 1005.8
20260506021304 9 313 3.2 8.0 0.13 0.97 0.97 95 1005.7
20260506021211 9 313 4.8 6.4 0.13 0.97 0.97 95 1005.7
20260506021103 9 316 3.2 6.4 0.15 0.97 0.97 95 1005.7
20260506020904 9 339 3.2 6.4 0.13 0.97 0.97 95 1005.7
20260506020703 9 347 3.2 4.8 0.13 0.97 0.97 95 1005.7
20260506020603 9 360 0.0 4.8 0.13 0.97 0.97 95 1005.7
20260506020402 9 346 3.2 4.8 0.15 0.97 0.97 95 1005.7
20260506020302 9 346 1.6 4.8 0.15 0.97 0.97 95 1005.8
20260506020212 9 346 3.2 4.8 0.15 1.07 1.07 93 5.5
20260506020210 9 346 3.2 4.8 0.15 0.97 0.97 95 1005.8
20260506020204 9 346 3.2 4.8 0.15 0.97 0.97 95 1005.8
20260506020005 9 346 3.2 6.4 0.13 0.94 0.94 95 1005.7
20260506015903 9 349 1.6 6.4 0.13 0.94 0.94 95 1005.8
20260506015702 9 43 3.2 8.0 0.15 0.94 0.94 95 1005.8
20260506015603 9 43 1.6 8.0 0.15 0.94 0.94 95 1005.7
20260506015503 9 360 3.2 8.0 0.15 0.94 0.94 95 1005.8
20260506015212 9 360 4.8 8.0 0.18 1.04 1.04 93 5.5
20260506015210 9 360 4.8 8.0 0.15 0.94 0.94 95 1005.8
20260506015202 9 5 3.2 8.0 0.18 0.94 0.94 95 1005.8
20260506015102 9 5 4.8 8.0 0.15 0.91 0.91 95 1005.7
20260506015003 9 5 3.2 8.0 0.15 0.91 0.91 95 1005.7
20260506014904 9 5 3.2 4.8 0.15 0.91 0.91 95 1005.8
20260506014702 9 5 3.2 11.3 0.18 0.91 0.91 95 1005.8
20260506014603 9 5 3.2 11.3 0.18 0.91 0.91 95 1005.7
20260506014503 9 5 4.8 11.3 0.18 0.91 0.91 95 1005.7
20260506014302 9 5 4.8 11.3 0.15 0.89 0.89 95 1005.8
20260506014212 9 5 6.4 11.3 0.20 1.02 1.02 93 5.5
20260506014203 9 24 3.2 9.7 0.18 0.89 0.89 95 1005.8
20260506013903 9 27 8.0 9.7 0.18 0.89 0.89 95 1005.8